www.pogodaiklimat.ru

Погода и климат >> Архив погоды >> Австралия >> Квинсленд >> Блэколл


ПОГОДА в Блэколле

  • Прогноз погоды в Блэколле
  • Монитор погоды в Блэколле

АРХИВ ПОГОДЫ в Блэколле

Время (UTC), дата Ветер
(напр.,м/с)
 
Видим.   Явления Облачность Т
(С)
Тd
(С)
f
(%)
Тe
(С)
Тes
(С)
Комфортность P
(гПа)
Po
(гПа)
Тmin
(С)
Tmax
(С)
R
(мм)
R24
(мм)
S
(см)
23 19.03 С 4 н/о в посл. час дождь {туман} н/о +28.8 +17.3 50 +33 +33 очень
душно
1012.2 980.5
02 20.03 ЮЗ 3 н/о н/о +34.6 +15.0 31 +36 +36 душно 1010.9 979.3 +22.0
05 20.03 З 8 н/о н/о +31.7 +15.2 37 +34 +34 душно 1007.6 976.1
08 20.03 СЗ 4 н/о н/о +29.2 +15.3 43 +32 +32 душно 1009.2 977.6
11 20.03 СВ 3 н/о н/о +26.9 +17.4 56 +31 +31 душно 1010.6 979.0
14 20.03 З 2 н/о н/о +24.8 +17.8 65 +29 +29 душно 1010.8 979.2 +37.1
17 20.03 СВ 2 н/о н/о +22.8 +16.4 67 +27 +27 душно 1010.1 978.5
20 20.03 В 2 н/о н/о +21.6 +15.9 70 +25 +25 комфорт 1010.4 978.8
23 20.03 СВ 4 н/о н/о +28.0 +17.5 53 +32 +32 душно 1012.2 980.5
02 21.03 В 4 н/о н/о +34.1 +15.1 32 +36 +36 душно 1011.2 979.6 +21.5
05 21.03 СВ 2 н/о н/о +37.0 +11.8 22 +36 +36 очень
жарко
1007.7 976.2
08 21.03 СВ 3 н/о н/о +35.0 +11.4 24 +35 +35 очень
жарко
1007.8 976.3
11 21.03 С 3 н/о н/о +28.9 +16.5 47 +32 +32 душно 1010.8 979.2
14 21.03 С 2 н/о н/о +25.9 +16.2 55 +29 +29 душно 1011.1 979.5 +37.5
17 21.03 С 4 н/о н/о +25.5 +17.2 60 +29 +29 душно 1010.0 978.4
23 21.03 С 6 н/о н/о +27.4 +18.1 57 +32 +32 очень
душно
1014.0 982.3
02 22.03 СВ 6 н/о н/о +33.3 +14.4 32 +35 +35 душно 1012.4 980.7 +23.3
05 22.03 СВ 7 н/о н/о +36.4 +9.1 19 +35 +35 очень
жарко
1009.0 977.4
08 22.03 СВ 5 н/о н/о +34.5 +9.7 22 +33 +33 жарко 1009.4 977.8
11 22.03 С 3 н/о н/о +29.6 +11.6 33 +30 +30 жарко 1011.1 979.5
14 22.03 СВ 3 н/о н/о +27.0 +12.6 41 +29 +29 жарко 1011.9 980.2 +37.6
17 22.03 СВ 2 н/о н/о +24.3 +13.5 51 +27 +27 жарко 1011.2 979.6
20 22.03 СВ 3 н/о н/о +22.7 +13.7 57 +26 +26 жарко 1012.6 980.9
23 22.03 СВ 5 н/о н/о +28.4 +15.7 46 +31 +31 душно 1014.3 982.6
02 23.03 В 5 н/о н/о +33.6 +10.2 24 +33 +33 жарко 1012.6 980.9 +22.4
05 23.03 В 7 н/о н/о +36.7 +9.3 19 +35 +35 очень
жарко
1009.8 978.2
08 23.03 СВ 6 н/о н/о +34.7 +9.9 22 +34 +34 очень
жарко
1009.5 977.9
11 23.03 В 4 н/о н/о +31.2 +12.1 31 +32 +32 жарко 1012.0 980.3
14 23.03 СВ 4 н/о н/о +28.4 +13.1 39 +30 +30 жарко 1012.2 980.5 +37.5
17 23.03 СВ 4 н/о н/о +27.0 +14.7 47 +30 +30 душно 1010.5 978.9
20 23.03 СВ 3 н/о н/о +24.7 +15.9 58 +28 +28 душно 1012.3 980.6
23 23.03 С 6 н/о н/о +29.0 +18.7 54 +34 +34 очень
душно
1013.9 982.2
02 24.03 С 6 н/о н/о +33.1 +15.6 35 +35 +35 душно 1012.6 980.9 +24.2
05 24.03 СВ 5 н/о н/о +34.7 +10.5 23 +34 +34 очень
жарко
1009.7 978.1
08 24.03 СВ 6 н/о н/о +34.0 +9.9 23 +33 +33 жарко 1009.5 977.9
11 24.03 СВ 4 н/о н/о +30.6 +10.5 29 +31 +31 жарко 1010.5 978.9
14 24.03 СВ 5 н/о н/о +28.8 +12.7 37 +30 +30 жарко 1010.8 979.2 +36.6
17 24.03 СВ 5 н/о н/о +28.4 +14.6 43 +31 +31 душно 1010.2 978.6
20 24.03 С 5 н/о н/о +27.7 +17.5 54 +32 +32 очень
душно
1011.3 979.7
23 24.03 С 6 н/о н/о +29.0 +19.9 58 +35 +35 очень
душно
1012.9 981.2
02 25.03 С 3 н/о н/о +31.8 +18.0 44 +36 +36 очень
душно
1012.1 980.4 +27.6
05 25.03 СЗ 4 н/о н/о +34.0 +16.8 36 +37 +37 очень
душно
1008.8 977.2
08 25.03 Ю 6 н/о н/о +30.6 +19.0 50 +36 +36 очень
душно
1009.7 978.1
11 25.03 Ю 5 н/о в посл. час дождь {туман} н/о +25.1 +21.4 80 +32 +32 очень
душно
1012.7 981.0
14 25.03 Ю 4 н/о туман местами н/о +23.8 +22.1 90 +31 +31 очень
душно
1012.8 981.1 +35.2
17 25.03 Ю 5 н/о {осадки} н/о +23.4 +21.3 88 +31 +31 очень
душно
1011.0 979.4 1
20 25.03 ЮВ 5 н/о н/о +23.6 +20.1 81 +29 +29 душно 1012.2 980.5
23 25.03 ЮВ 6 н/о {туман} н/о +22.7 +21.3 92 +30 +30 очень
душно
1013.8 982.1
02 26.03 ЮВ 5 н/о в посл. час дождь {туман} н/о +23.1 +22.8 98 +32 +32 очень
душно
1013.0 981.3 +22.2
05 26.03 ЮВ 5 н/о туман местами н/о +23.3 +23.3 100 +33 +33 очень
душно
1010.7 979.1
08 26.03 ЮВ 5 н/о туман местами н/о +22.3 +22.3 100 +30 +30 очень
душно
1011.5 979.9
11 26.03 ЮВ 6 н/о туман н/о +21.1 +21.1 100 +26 +26 душно 1013.9 982.2
14 26.03 ЮВ 7 н/о туман н/о +20.1 +20.1 100 +23 +23 комфорт 1012.8 981.1 +24.3
17 26.03 ЮВ 6 н/о туман местами н/о +20.4 +20.4 100 +24 +24 комфорт 1010.8 979.2

 

Местоположение метеостанции Блэколл (Квинсленд, Австралия): широта -24.42 долгота 145.43 высота над уровнем моря 282 м.

В архиве по умолчанию представлена погода в Блэколле за последнюю неделю. Архивные данные за месяц целиком и за предыдущие месяцы, начиная с января 2011 года, Вы можете получить, выбрав интересующий диапазон дат из раскрывающегося списка и нажав кнопку "Ввод!".


*Определитесь, кто Вы:
робот инопланетянин человек

Внимание! Время в таблицах - всемирное. Для получения местного времени необходимо прибавить поправку, которая равна 10 ч.

Смотрите также архив погоды в соседних городах и на ближайших метеорологических станциях:

Погода в Лонгриче (Квинсленд, Австралия) (161 км)
Погода в Лочингтоне (Квинсленд, Австралия) (219 км)
Погода в Чарвилле (Квинсленд, Австралия) (237 км)
Погода в Клермоне (Квинсленд, Австралия) (289 км)
Погода в Эмералде (Квинсленд, Австралия) (295 км)
Погода в Роллстоне (Квинсленд, Австралия) (324 км)
Погода в Уинтоне (Квинсленд, Австралия) (331 км)
Погода в Роме (Квинсленд, Австралия) (411 км)
Погода в Хьюэндене (Квинсленд, Австралия) (419 км)
Погода в Таргоминде (Квинсленд, Австралия) (428 км)

Пояснения к столбцам:

Ветер - указаны скорость ветра в м/с - средняя за 10 мин, порывы в срок и между сроками (в фигурных скобках) и направление, откуда дует ветер: С - северный, СВ - северо-восточный, В - восточный, ЮВ - юго-восточный, Ю - южный, ЮЗ - юго-западный, З - западный, СЗ - северо-западный.
Видимость - горизонтальная дальность видимости в метрах или километрах. При видимости от 1 до 10 км при отсутствии осадков обычно наблюдается дымка, при ухудшении видимости до 1 км и менее - туман. В сухую погоду видимость может ухудшаться дымом, пылью или мглою.
Явления - указаны атмосферные явления, наблюдавшиеся в срок или в последний час перед сроком; фигурными скобками обозначены явления, наблюдавшиеся между сроками (за 1-3 часа до срока); квадратными скобками обозначены град или гололедные отложения с указанием их диаметра в мм.
Облачность - указаны через наклонную черту общая и нижняя облачность в баллах и высота нижней границы облаков в метрах; квадратными скобками обозначены формы облаков: Ci - перистые, Cs - перисто-слоистые, Cc - перисто-кучевые, Ac - высококучевые, As - высокослоистые, Sc - слоисто-кучевые, Ns - слоисто-дождевые, Cu - кучевые, Cb - кучево-дождевые. Подробнее классификацию облаков см. в Атласе облаков (PDF).
T - Температура воздуха - температура, измеренная на высоте 2 м над землей.
Td - Температура точки росы - температура, при понижении до которой содержащийся в воздухе водяной пар достигнет насыщения.
f - Относительная влажность воздуха - влажноcть воздуха, измеренная на высоте 2 м над землей.
Te - Эффективная температура - температура, которую ощущает одетый по сезону человек в тени. Характеристика душности погоды. При расчете учитывается влияние влажности воздуха и скорости ветра на теплоощущения человека.
Tes - Эффективная температура на солнце - температура, которую ощущает человек, с поправкой на солнечный нагрев. Характеристика знойности погоды. Зависит от высоты солнца над горизонтом, облачности и скорости ветра. Ночью, в пасмурную погоду, а также при ветре 12 м/с и более поправка равна нулю.
P - Атмосферное давление - приведенное к уровню моря атмосферное давление.
Po - Атмосферное давление - измеренное на уровне метеостанции атмосферное давление.
Tmin - Минимальная температура - минимум температуры воздуха на высоте 2 м над землей.
Tmax - Максимальная температура - максимум температуры воздуха на высоте 2 м над землей.
R - Количество осадков - Количество выпавших осадков за период времени, мм. При наведении курсора мыши на число - период времени, за который выпало указанное количество осадков.
R24 - Количество осадков - Количество выпавших осадков за 24 часа, мм.
S - Снежный покров - Высота снежного покрова, см. При наведении курсора мыши на число - состояние снежного покрова и степень покрытия местности в баллах.